Home   Weather   Mansfield   Past weeks

Flag for USA Past Weather in Mansfield, Texas, USA — Yesterday and Last 2 Weeks

Now
64 °F

Sunny.


Feels Like: 64 °F
Forecast: 44 / 68 °F
Wind: 12 mph from South

Location: Burleson-Rendon

Current Time: Jan 19, 2017 at 1:39:18 pm

Latest Report: Jan 19, 2017 at 12:50 pm


Visibility: 10 mi

Pressure: 29.73 "Hg

Humidity: 60%

Dew Point: 50 °F

Location of MansfieldLocation

Past Weather in Mansfield — Graph

°F

Mansfield Temperature Yesterday

Maximum temperature yesterday: 52 °F (at 7:55 pm)
Minimum temperature yesterday: 46 °F (at 11:55 pm)
Average temperature yesterday: 48 °F

High & Low Weather Summary for the Past Weeks

 TemperatureHumidityPressure
High79 °F (Jan 10, 1:49 pm)100% (Jan 14, 6:50 am)30.80 "Hg (Jan 14, 6:50 am)
Low14 °F (Jan 7, 4:55 am)20% (Jan 8, 3:53 pm)29.79 "Hg (Jan 19, 11:53 am)
Average45 °F75%30.19 "Hg
* Reported Jan 4 11:55 am — Jan 19 11:53 am, Mansfield, Weather by CustomWeather, © 2017

Note: Actual official high and low records may vary slightly from our data, if they occured in-between our weather recording intervals... More about our weather records

Advertising

Mansfield Weather History for the Previous 24 Hours

Scroll right to see more
 ConditionsComfort  
Time TempWeatherWind HumidityBarometerVisibility
11:53 am
Thu, Jan 19
61 °FSunny.10 mph63%29.79 "Hg10 mi
10:55 am54 °FScattered clouds.8 mph88%29.84 "Hg7 mi
9:47 am50 °FLow clouds.9 mph94%29.86 "Hg7 mi
8:51 am48 °FLow clouds.8 mph100%29.85 "Hg7 mi
7:48 am48 °FFog.6 mph100%29.85 "Hg4 mi
6:47 am48 °FLow clouds.7 mph100%29.85 "Hg2 mi
6:15 am48 °FFog.6 mph97%29.84 "Hg3 mi
5:55 am48 °FFog.5 mph97%29.86 "Hg2 mi
5:15 am49 °FFog.5 mph97%29.88 "Hg2 mi
4:55 am48 °FFog.6 mph97%29.89 "Hg4 mi
4:35 am49 °FFog.6 mph97%29.90 "Hg3 mi
3:55 am48 °FFog.6 mph97%29.92 "Hg4 mi
3:15 am48 °FFog.5 mph97%29.94 "Hg2 mi
2:55 am47 °FFog.5 mph97%29.94 "Hg1 mi
2:35 am47 °FFog.5 mph97%29.94 "Hg1 mi
1:55 am47 °FFog.6 mph96%29.95 "Hg1 mi
1:15 am47 °FFog.7 mph96%29.97 "Hg1 mi
12:55 am47 °FFog.9 mph96%29.97 "Hg2 mi
12:15 am47 °FFog.7 mph95%29.99 "Hg2 mi
11:55 pm
Wed, Jan 18
46 °FFog.5 mph95%29.99 "Hg5 mi
11:15 pm47 °FFog.5 mph93%29.99 "Hg5 mi
10:35 pm48 °FPassing clouds.5 mph91%30.00 "Hg7 mi
9:55 pm51 °FOvercast.5 mph90%30.02 "Hg10 mi
9:15 pm51 °FOvercast.6 mph92%30.02 "Hg10 mi
8:55 pm51 °FOvercast.3 mph92%30.02 "Hg7 mi
8:15 pm51 °FOvercast.No wind89%30.01 "Hg10 mi
7:55 pm52 °FOvercast.No wind87%30.00 "Hg10 mi
6:48 pm52 °FOvercast.No wind88%30.02 "Hg7 mi
5:48 pm52 °FFog.No wind88%30.03 "Hg5 mi
5:20 pm52 °FMore clouds than sun.5 mph88%30.03 "Hg7 mi
4:52 pm52 °FFog.5 mph88%30.03 "Hg5 mi
3:55 pm52 °FFog.6 mph88%30.04 "Hg5 mi
2:53 pm50 °FFog.9 mph94%30.06 "Hg5 mi
1:55 pm50 °FFog.10 mph94%30.07 "Hg5 mi
Weather by CustomWeather, © 2017

See weather overviewHow to use our weather pages